Location: Feudal
(51.8839°N, 107.6105°W)
Time: 05:23:11
(UTC+00:00)

Envisat - Pass Details

Date: 24 January 2022
Orbit: 764 x 765 km, 98.2° (Epoch: 25 May)

Event Time Altitude Azimuth Distance (km) Brightness Sun altitude
Rises 12:10:16 0° 15° (NNE) 3,245 6.5 -26.0°
Reaches altitude 10° 12:12:36 10° 17° (NNE) 2,314 5.7 -25.7°
Maximum altitude 12:17:42 77° 104° (ESE) 791 3.0 -24.9°
Drops below altitude 10° 12:22:47 10° 191° (S) 2,298 5.4 -24.1°
Sets 12:25:04 0° 192° (SSW) 3,220 6.1 -23.7°
